Wind_Speed
3 4 6 10 6 3 6 4 2 2 1 2 5 6 11 24 20 21 24 25 26 28 27 26 25 26 28 32 33 33 37 37 39 41 41 41 42 40 40 41 39 38 35 34
5 4 6 6 4 4 3 3 2 2 1 2 4 9 9 15 21 26 27 27 22 21 19 20 23 24 26 25 29 33 35 35 37 40 40 43 42 42 41 40 41 41 38 38
6 2 10 6 4 5 3 5 4 4 1 4 5 8 6 5 8 13 14 16 19 20 16 9 7 8 16 23 25 27 31 36 37 37 41 45 49 48 47 46 44 43 42 42
3 2 6 4 4 5 4 5 4 4 3 2 2 5 6 5 10 8 18 9 9 12 10 10 9 7 5 9 16 22 27 33 38 40 42 42 43 47 44 46 45 45 43 43
5 7 5 3 5 6 5 4 3 3 4 3 3 2 7 5 6 5 12 14 14 15 14 12 9 8 8 7 6 11 16 20 28 38 43 44 44 44 46 46 46 45 45 43
3 1 4 6 3 2 8 6 7 4 3 1 5 4 5 3 1 4 7 17 20 20 20 19 17 13 10 10 11 12 12 12 15 21 31 39 42 43 44 43 44 43 42 40
2 1 0 3 6 4 4 6 2 3 3 5 1 3 8 2 3 2 6 17 19 21 24 27 30 30 29 29 28 22 16 14 13 13 16 23 31 36 39 41 42 41 41 40
7 3 7 5 6 8 6 7 5 7 4 3 1 4 5 4 9 12 13 16 20 19 17 20 24 25 25 25 25 26 27 23 16 14 15 17 21 27 32 34 36 37 37 37
6 4 1 2 3 5 5 4 4 6 3 3 4 5 5 5 8 12 18 23 24 25 22 21 19 22 23 21 22 23 24 24 24 21 16 16 19 23 26 27 28 29 30 29
7 4 1 2 4 3 3 7 4 3 2 3 3 3 5 7 5 6 14 18 18 20 20 20 22 20 19 19 18 18 18 20 20 20 20 20 18 17 17 18 19 21 23 24
5 4 1 4 6 8 3 3 3 4 5 5 2 5 4 11 8 8 10 14 14 16 17 17 17 16 19 19 19 19 18 16 14 15 17 18 18 16 14 17 20 22 23 24
6 5 4 6 2 2 2 6 6 5 5 2 3 5 7 9 12 10 9 15 13 11 8 11 14 17 18 20 22 21 19 17 17 18 19 18 19 21 22 25 26 26 28 29
7 3 3 2 2 2 4 2 4 4 4 7 6 4 4 7 6 10 18 16 13 11 12 15 17 18 22 23 23 22 22 23 22 21 21 21 23 24 25 27 28 29 31 33
3 4 4 10 3 5 5 4 4 5 3 5 6 4 7 8 8 15 16 13 13 15 18 19 21 23 23 24 25 26 26 28 30 31 30 29 27 26 28 30 31 34 36 38
4 4 3 3 2 1 4 7 6 6 4 7 3 4 3 6 7 6 10 13 16 18 19 19 18 18 20 22 24 26 29 31 34 36 37 36 34 33 32 32 34 34 35 37
0 3 3 2 3 3 3 6 5 3 2 5 3 13 7 2 10 6 8 11 13 14 14 15 16 17 18 21 23 24 25 26 28 30 33 36 37 34 33 33 34 35 35 36
6 6 4 4 1 4 6 8 8 5 5 6 7 4 5 4 5 3 3 6 7 9 11 14 16 18 20 22 25 27 28 29 30 31 32 33 34 35 33 32 33 34 34 34
6 5 2 3 2 4 3 2 2 8 5 7 6 1 5 4 3 5 4 4 8 10 14 16 18 19 20 22 24 27 28 31 32 33 34 35 37 37 35 32 32 31 33 36
2 4 3 5 3 7 6 6 6 7 7 8 7 4 4 1 1 2 13 3 7 11 15 17 19 21 22 23 25 27 28 30 32 34 34 35 36 39 41 40 38 34 34 33
3 3 4 3 5 9 4 2 10 7 6 8 11 7 3 2 1 3 9 7 7 11 17 20 22 23 25 26 28 29 30 31 33 35 37 37 38 39 40 41 41 41 39 39
5 2 8 4 3 7 7 6 9 6 6 12 11 9 5 4 5 4 7 10 14 18 22 25 27 29 29 31 33 33 33 33 33 34 35 35 36 37 38 39 39 40 39 38
8 7 4 4 3 10 10 4 7 4 13 11 6 5 7 9 11 12 15 18 21 24 27 30 33 34 33 32 33 35 36 36 36 36 36 35 35 35 35 35 36 38 39 40
2 6 5 8 6 2 17 4 10 11 9 6 7 5 1 8 15 20 26 28 27 29 31 33 35 37 37 34 35 38 37 37 38 38 37 36 34 32 32 35 37 38 36 34
4 5 3 4 4 7 8 8 11 7 5 9 3 6 13 19 24 29 32 33 31 31 35 37 38 39 42 38 37 38 38 38 38 39 37 35 33 34 34 34 34 33 33 32
6 11 6 3 2 6 7 12 15 11 4 11 15 19 23 24 28 24 27 31 35 38 39 38 39 40 41 39 40 38 38 37 39 37 36 36 36 34 34 32 31 30 28 28
12 6 5 4 9 6 8 17 8 10 11 15 17 17 15 17 22 27 32 35 39 42 42 40 39 40 42 42 43 41 37 37 36 37 37 36 35 35 32 30 28 24 20 15
Wind_Direction
85 100 185 197 169 130 135 131 152 256 132 162 247 267 275 287 291 280 279 274 270 266 269 262 258 259 254 248 245 244 242 243 241 241 241 242 242 244 246 248 251 252 255 256
53 221 204 123 161 126 102 101 250 280 38 143 348 277 265 270 270 273 279 283 283 290 287 275 263 256 255 254 249 246 245 243 244 244 245 245 248 249 250 252 253 253 252 254
155 211 142 138 147 144 172 160 198 209 42 54 343 305 332 299 276 287 279 293 303 295 299 315 312 284 258 258 258 255 253 249 248 247 246 246 245 249 250 250 252 253 253 253
197 127 138 143 169 130 162 198 152 148 88 210 20 284 310 313 298 327 336 340 31 47 53 51 52 42 337 283 264 260 258 255 252 249 248 250 251 252 258 257 258 257 256 256
228 164 136 138 191 160 197 112 122 92 98 75 319 87 271 339 321 356 37 40 47 50 46 46 32 5 347 332 312 273 266 263 259 254 252 252 253 257 258 260 261 259 258 258
124 99 151 175 86 112 147 82 50 54 86 333 240 144 289 234 159 23 23 51 55 57 54 50 41 27 11 357 344 332 319 299 277 263 257 258 258 258 261 265 265 266 266 263
68 173 71 142 86 42 82 81 357 346 3 220 61 99 243 294 7 33 66 53 56 59 62 62 58 55 53 49 43 32 10 345 327 306 283 270 266 264 265 267 269 271 271 270
151 224 170 190 172 172 184 156 158 196 195 248 85 227 245 114 105 102 58 47 49 52 59 62 55 48 43 37 36 35 34 26 2 325 300 282 272 267 267 268 271 272 272 273
147 245 70 125 141 141 190 179 156 103 28 69 216 287 327 89 90 68 56 59 54 50 45 37 31 25 25 24 25 21 18 16 11 7 344 309 286 277 274 273 272 271 269 269
198 136 56 160 110 50 158 159 75 12 161 257 274 232 216 106 111 61 45 40 32 24 23 18 15 12 9 7 5 5 1 360 0 358 355 349 332 310 294 287 284 281 279 277
143 114 124 114 205 164 133 167 72 129 156 176 181 252 194 149 141 106 67 34 22 20 17 9 10 2 349 347 348 350 344 343 340 338 339 339 334 323 311 308 310 304 295 290
191 132 159 198 263 251 188 179 155 151 218 239 149 261 141 147 143 88 46 26 26 16 20 5 354 346 342 342 345 352 349 344 335 327 322 318 315 311 301 300 303 300 297 293
180 185 93 82 13 344 204 164 139 114 80 192 147 244 198 151 145 36 29 28 35 34 11 1 356 358 358 358 356 352 349 347 345 340 327 316 309 301 295 291 289 290 290 289
93 92 173 207 179 139 171 170 173 149 161 166 220 135 217 279 336 22 41 43 26 15 11 3 359 353 346 343 339 339 340 339 336 334 332 327 319 307 299 293 290 289 288 287
71 141 95 65 42 48 157 162 178 187 183 186 151 203 209 293 325 32 33 28 29 26 18 10 359 349 344 338 333 332 332 331 328 326 324 325 322 316 311 303 295 290 288 288
63 117 114 140 350 348 294 243 198 198 206 265 270 273 197 244 126 59 28 41 31 14 3 357 350 344 337 333 328 325 323 322 321 320 320 320 320 319 316 312 305 297 294 292
146 139 125 188 338 83 311 241 186 184 200 165 212 239 138 133 138 139 122 90 42 13 360 348 339 331 327 325 322 319 319 319 317 314 314 316 316 316 315 313 311 309 305 301
135 114 94 129 95 205 231 6 76 205 219 227 265 242 144 167 233 276 232 105 12 359 348 345 339 330 325 322 318 316 315 314 313 313 313 310 310 313 315 315 312 312 312 311
94 120 105 154 190 311 280 187 179 167 258 213 224 210 171 146 222 238 154 28 352 349 346 340 335 332 328 326 321 320 318 316 316 315 313 311 310 309 309 310 310 310 310 312
68 88 122 127 149 206 247 307 143 109 273 213 194 167 183 50 353 237 162 324 316 327 333 333 332 332 327 322 320 320 319 318 316 315 313 313 312 309 306 306 307 307 307 306
143 126 189 172 208 282 214 205 141 118 245 160 167 168 190 203 235 153 258 306 317 323 327 328 326 324 324 321 317 316 316 316 313 312 312 312 309 308 308 307 308 307 308 309
170 158 193 142 157 259 162 145 180 184 148 149 165 222 259 286 295 295 303 310 314 317 320 322 320 319 319 318 313 311 311 312 311 310 309 310 309 308 307 306 305 306 307 305
211 178 175 182 205 80 167 154 139 138 150 193 219 190 251 304 303 303 308 310 310 310 313 316 315 313 313 313 309 307 308 308 308 307 306 306 305 306 306 306 305 305 306 306
250 160 168 105 220 163 153 140 155 161 163 143 176 287 304 305 303 303 303 302 302 304 309 313 311 309 307 308 307 307 306 304 304 305 305 304 303 305 304 304 303 302 301 301
188 150 158 249 167 132 173 177 179 163 229 283 288 298 299 297 297 295 295 299 301 304 306 305 304 304 304 304 307 307 303 299 298 298 300 302 300 303 303 303 303 301 300 298
175 167 187 215 174 178 167 165 231 284 275 281 285 287 281 282 288 291 293 296 298 299 300 301 301 302 302 301 303 306 300 295 292 293 297 300 300 300 300 302 304 302 298 293
Height
1514 1521 1527 1523 1525 1526 1532 1533 1535 1534 1530 1534 1534 1536 1529 1523 1522 1520 1518 1518 1518 1517 1517 1519 1522 1525 1526 1528 1531 1533 1535 1537 1540 1543 1545 1547 1548 1550 1552 1553 1556 1558 1560 1561
1518 1524 1517 1520 1525 1525 1527 1532 1536 1536 1532 1534 1535 1533 1527 1523 1516 1514 1514 1512 1513 1513 1511 1512 1514 1517 1520 1522 1524 1527 1528 1532 1534 1536 1538 1540 1542 1544 1547 1549 1550 1552 1554 1556
1518 1515 1513 1519 1526 1528 1530 1536 1537 1537 1536 1535 1540 1536 1530 1518 1514 1510 1510 1511 1512 1510 1507 1509 1510 1512 1515 1517 1519 1520 1522 1525 1528 1530 1532 1534 1536 1538 1540 1541 1543 1544 1547 1550
1512 1512 1516 1519 1524 1525 1533 1528 1532 1534 1541 1549 1545 1556 1536 1523 1517 1512 1509 1508 1509 1508 1507 1508 1509 1510 1512 1513 1513 1514 1516 1519 1522 1524 1525 1527 1528 1528 1530 1533 1536 1538 1541 1543
1513 1513 1517 1520 1520 1522 1528 1527 1532 1536 1545 1546 1549 1557 1537 1528 1521 1515 1512 1512 1511 1509 1509 1508 1510 1511 1511 1511 1510 1510 1511 1512 1515 1518 1520 1522 1523 1525 1526 1528 1530 1533 1534 1536
1510 1512 1513 1517 1521 1521 1524 1531 1540 1548 1551 1559 1550 1550 1544 1529 1521 1518 1516 1513 1512 1511 1511 1511 1511 1511 1511 1511 1510 1509 1509 1508 1509 1511 1514 1516 1518 1520 1521 1522 1523 1525 1527 1528
1513 1513 1514 1515 1522 1523 1525 1535 1556 1560 1569 1561 1552 1555 1537 1523 1522 1520 1519 1516 1515 1514 1514 1513 1512 1513 1513 1512 1511 1509 1508 1508 1508 1508 1509 1511 1514 1516 1516 1517 1518 1519 1520 1520
1518 1524 1514 1512 1514 1521 1527 1530 1550 1561 1570 1555 1551 1548 1529 1519 1519 1520 1520 1519 1518 1516 1517 1516 1516 1516 1515 1514 1513 1512 1510 1509 1509 1508 1508 1508 1507 1508 1510 1510 1511 1511 1511 1512
1514 1512 1509 1509 1510 1513 1526 1533 1530 1552 1594 1573 1547 1535 1517 1519 1524 1523 1521 1519 1519 1520 1519 1518 1517 1517 1516 1515 1513 1513 1512 1511 1509 1507 1506 1504 1504 1503 1503 1504 1504 1503 1502 1503
1497 1508 1511 1510 1510 1514 1514 1519 1537 1551 1563 1568 1545 1537 1527 1528 1528 1525 1521 1523 1521 1520 1519 1519 1517 1518 1518 1516 1514 1512 1512 1511 1509 1507 1505 1503 1501 1499 1499 1499 1498 1497 1497 1497
1492 1497 1513 1511 1512 1514 1519 1521 1527 1531 1542 1549 1561 1536 1519 1522 1523 1524 1522 1522 1520 1518 1518 1518 1518 1518 1517 1515 1513 1511 1509 1508 1507 1505 1503 1501 1500 1499 1497 1496 1496 1494 1493 1491
1488 1497 1515 1510 1507 1507 1506 1510 1515 1528 1539 1547 1542 1533 1516 1516 1517 1518 1519 1519 1518 1518 1517 1516 1516 1515 1514 1511 1508 1507 1507 1506 1504 1502 1500 1499 1498 1496 1494 1493 1492 1490 1488 1486
1483 1496 1518 1509 1510 1508 1507 1510 1511 1517 1528 1539 1541 1530 1516 1516 1516 1517 1516 1516 1516 1515 1515 1513 1510 1509 1507 1506 1504 1503 1502 1501 1500 1498 1497 1496 1494 1492 1489 1487 1485 1483 1481 1479
1478 1491 1491 1492 1498 1502 1509 1509 1509 1509 1527 1522 1517 1512 1518 1515 1511 1513 1514 1515 1514 1512 1509 1506 1503 1502 1502 1503 1502 1501 1499 1497 1495 1493 1491 1489 1488 1486 1484 1481 1479 1476 1474 1470
1483 1495 1498 1502 1502 1500 1501 1503 1507 1508 1508 1511 1512 1516 1512 1511 1510 1512 1513 1512 1511 1510 1508 1507 1508 1507 1506 1505 1502 1500 1497 1494 1491 1488 1485 1482 1480 1478 1476 1473 1471 1467 1465 1462
1488 1498 1501 1505 1508 1508 1507 1505 1507 1509 1509 1510 1511 1507 1504 1507 1510 1510 1510 1510 1510 1511 1511 1510 1509 1508 1506 1504 1502 1499 1497 1494 1491 1487 1483 1479 1475 1472 1469 1466 1462 1460 1456 1453
1488 1496 1503 1508 1514 1513 1515 1499 1504 1507 1505 1503 1508 1499 1503 1508 1508 1510 1511 1512 1513 1512 1511 1510 1508 1506 1504 1502 1499 1497 1494 1490 1488 1484 1480 1475 1471 1467 1463 1458 1456 1453 1449 1445
1488 1494 1503 1516 1525 1515 1491 1494 1493 1495 1496 1497 1496 1498 1501 1503 1505 1506 1508 1509 1510 1510 1509 1507 1506 1504 1503 1500 1496 1492 1491 1487 1484 1480 1475 1471 1467 1462 1457 1453 1449 1445 1441 1437
1479 1487 1510 1510 1537 1505 1484 1490 1494 1494 1494 1490 1494 1495 1498 1501 1502 1503 1505 1507 1508 1507 1506 1504 1502 1501 1499 1496 1492 1488 1486 1482 1478 1473 1469 1466 1461 1455 1450 1446 1442 1438 1433 1430
1481 1481 1490 1528 1529 1528 1492 1483 1484 1488 1503 1486 1489 1492 1495 1497 1503 1504 1502 1504 1505 1505 1503 1500 1498 1497 1495 1491 1487 1483 1480 1477 1472 1467 1462 1458 1454 1449 1443 1439 1434 1430 1425 1421
1482 1487 1485 1512 1514 1503 1485 1483 1484 1506 1493 1484 1487 1490 1493 1496 1498 1500 1501 1501 1501 1499 1497 1495 1493 1491 1489 1485 1481 1478 1474 1471 1467 1462 1457 1452 1447 1442 1437 1432 1427 1422 1416 1412
1471 1483 1490 1496 1499 1496 1477 1484 1487 1483 1482 1485 1487 1489 1491 1492 1493 1494 1495 1496 1495 1492 1490 1489 1485 1483 1482 1479 1475 1471 1467 1464 1459 1455 1450 1445 1440 1435 1430 1424 1420 1415 1411 1406
1476 1470 1482 1482 1477 1471 1474 1474 1477 1479 1482 1484 1486 1488 1490 1491 1490 1490 1488 1488 1487 1485 1483 1482 1480 1475 1473 1472 1468 1462 1459 1456 1452 1447 1442 1437 1432 1428 1424 1418 1413 1408 1404 1399
1467 1466 1472 1473 1469 1470 1472 1474 1476 1478 1481 1483 1486 1487 1487 1487 1486 1484 1482 1480 1480 1479 1477 1474 1470 1466 1463 1464 1460 1456 1450 1446 1442 1438 1434 1430 1425 1421 1417 1412 1408 1400 1397 1393
1457 1461 1467 1470 1468 1470 1471 1473 1475 1477 1479 1480 1481 1481 1481 1481 1480 1479 1476 1474 1471 1469 1468 1467 1465 1460 1456 1453 1449 1447 1442 1438 1433 1428 1424 1421 1418 1414 1409 1405 1400 1395 1393 1389
1447 1452 1457 1463 1459 1461 1465 1469 1470 1472 1473 1474 1475 1476 1476 1476 1475 1473 1471 1468 1465 1461 1459 1457 1454 1451 1448 1444 1441 1437 1433 1429 1424 1419 1416 1412 1408 1404 1401 1397 1393 1391 1388 1386